Weather in Tubinskiy

Russia / Republic of Bashkortostan     52°53′15″N   58°13′02″E
temp.,
°C
wind,
m/s
gust,
m/s
humid.,
%
clouds,
%
prec.,
mm/h
press.,
hPa
HPBL,
m
28 february, sun
sun2823:00−13ene2297100 0.9 100633
02:00−14ene229789 0.2 100558
05:00−13ene339694 0.7 1004119
08:00−13ene3396100 1.1 1003131
11:00−11ene3494100 1.7 1002196
14:00−10ene3393100 0.6 1002245
17:00−10e2394100 1.2 1003223
20:00−13ene229798 0.3 100530
1 march, mon
mon123:00−14ene229791 0.4 100826
02:00−17ene119986 0.1 101020
05:00−16ssw119991 0.1 101220
08:00−14ssw119699 0.3 101420
11:00−11s119196 0.3 1016224
14:00−7ssw2386100 0.1 1016482
17:00−6wsw2489100 0.3 1016516
20:00−11w3695100 0.1 1018156
2 march, tue
tue223:00−16w229898 0.2 101821
02:00−18w239882 0.0 101822
05:00−20w3310072 0.0 101822
08:00−22w3310081 0.0 101829
11:00−15w489277 0.0 1017305
14:00−11w5118735 0.0 1014452
17:00−11wsw6129164 0.0 1013467
20:00−13wsw61591100 0.1 1011523
3 march, wed
wed323:00−14wsw71790100 0.1 1010541
02:00−11wsw6159199 0.0 1007514
05:00−8wsw61491100 0.0 1006536
08:00−8wsw51292100 0.0 1004499
11:00−5wsw61090100 0.1 1004638
14:00−3wsw6888100 0.1 1003793
17:00−3wsw4790100 0.3 1003675
20:00−6wsw339693 0.1 100356
4 march, thu
thu423:00−8w339693 0.1 100449
02:00−10w339773 0.0 100438
05:00−11wnw359685 0.0 1005117
08:00−14wnw349692 0.0 100663
11:00−10nw6108762 0.0 1008498
14:00−7wnw79830 0.0 1008892
17:00−8w7128644 0.1 1009774
20:00−11wsw6149177 0.0 1010366